Location: Gleizolles
(44.4833°N, 6.7667°E)
Time: 12:07:35
(UTC+00:00)

A-11 Canister half - Pass Details

Date: 18 June 2024
Orbit: 1515 x 1684 km, 47.2° (Epoch: 24 July)

Event Time Altitude Azimuth Distance (km) Brightness Sun altitude
Rises 22:39:23 0° 287° (WNW) 4,879 12.0 -20.9°
Reaches altitude 10° 22:42:34 10° 287° (WNW) 3,870 11.5 -21.1°
Maximum altitude 22:52:28 90° 12° (NNE) 1,594 9.0 -21.4°
Drops below altitude 10° 23:01:59 10° 110° (ESE) 3,729 10.7 -21.7°
Sets 23:04:59 0° 111° (ESE) 4,693 11.3 -21.8°
